Regional Weather Roundup
Issued by NWS Lake Charles, LA

Home | Current Version | Previous Version | Text Only | Print | Product List | Glossary On
Versions: 1 2 3 4 5 6 7 8 9 10 11 12 13 14 15 16 17 18 19 20 21 22 23 24 25 26 27 28 29 30 31 32 33 34 35 36 37 38 39 40 41 42 43 44 45 46 47 48 49 50
477
ASUS44 KLCH 240210
RWRLCH
REGIONAL WEATHER ROUNDUP
NATIONAL WEATHER SERVICE LAKE CHARLES LA
900 PM CDT SAT JUL 23 2016

Note: "fair" indicates few or no clouds below 12,000 feet with no
significant weather and/or obstructions to visibility.


ACROSS SOUTHEAST TEXAS

CITY           SKY/WX    TMP DP  RH WIND       PRES   REMARKS
BEAUMONT       CLEAR     81  74  79 S3        29.91R
BEAUMONT CITY  FAIR      83  75  75 S3        29.92R
ORANGE         PTCLDY    84  71  65 S3        29.93R
JASPER         PTCLDY    84  75  74 CALM      29.95R
$$

ACROSS CENTRAL LOUISIANA

CITY           SKY/WX    TMP DP  RH WIND       PRES   REMARKS
LEESVILLE      PTCLDY    87  78  73 S5        29.92R HX 100
FULLERTON      FAIR      84  78  82 CALM      29.91R
ALEXANDRIA INT PTCLDY    84  76  76 SE3       29.91R
ESLER FIELD    CLOUDY    83  81  94 CALM      29.93R
DERIDDER       FAIR      87  76  69 CALM      29.94S
OAKDALE        PTCLDY    82  81  98 CALM      29.93R
OPELOUSAS      FAIR      83  77  82 SE3       29.93R
$$

ACROSS SOUTHWEST AND SOUTH CENTRAL LOUISIANA

CITY           SKY/WX    TMP DP  RH WIND       PRES   REMARKS
SULPHUR        PTCLDY    85  76  74 CALM      29.93R
LAKE CHARLES   PTCLDY    84  75  74 S3        29.92R
CHENNAULT INT    N/A     84  75  74 S7        29.92
CAMERON PHI    CLEAR     86  77  74 SW6       29.92R
DEQUINCY       FAIR      83  75  77 CALM      29.93R
JENNINGS       FAIR      84  75  74 S3        29.93R
LAFAYETTE      CLOUDY    85  78  80 SE3       29.94R
NEW IBERIA     CLOUDY    83  78  85 S5        29.94R
ABBEVILLE      FAIR      84  78  82 SW5       29.94R
PATTERSON      CLOUDY    81  79  94 CALM      29.95R
SALT POINT       N/A     86  76  71 CALM      29.93R
$$

SELECTED SITES ACROSS THE REGION

CITY           SKY/WX    TMP DP  RH WIND       PRES   REMARKS
HOUSTON BUSH   PTCLDY    89  72  56 S9        29.90R
HOUSTON HOBBY  PTCLDY    86  76  71 S7        29.90R
GALVESTON      CLEAR     85  79  82 S10       29.92R
COLLEGE STAT   CLEAR     91  70  49 SE7       29.88R
CONROE         CLEAR     88  74  63 SE5       29.90R
HUNTSVILLE     CLEAR     91  73  55 CALM      29.90R
LUFKIN         CLEAR     88  74  63 SE6       29.92R
SHREVEPORT     CLOUDY    80  75  84 N5        29.95R
MONROE         CLOUDY    81  71  71 S6        29.97R THUNDER
NATCHEZ MS     CLOUDY    81  73  78 NE8       29.97R
BATON ROUGE    CLEAR     79  74  84 CALM      29.95R
N.O. INTL ARPT MOCLDY    86  74  67 NW5       29.95R
SLIDELL        PTCLDY    82  78  88 CALM      29.95R
$$

MARINE REPORTS

STATION/POSITION TIME  SKY/WX   TEMP    WIND        PRES    VSBY
                                AIR SEA DIR/SP/G
                 (UTC)          (F)     (DEG/KT/KT) (MB)    (MI)
BUOY 30 S HIGH I 0150            86 90  180/ 10/ 14 1012.6F
WVE H/P(F/S)=  1/ 6

SEA RIM ST PARK  0200            86     190/  9/ 11 1013.7R
PORT ARTHUR      0100               90                N/A
SABINE PASS N    0100            87 92                N/A
TEXAS POINT      NOT AVBL
CALCASIEU PASS   0100            87 90                N/A
LK CHARLES BEACH 0100            89 90                N/A
MARSH ISLAND     0100            89                   N/A
FRESH WATER LOCK 0100            87 90                N/A
AMERADA PASS     0100            84 88                N/A
$$




USA.gov is the U.S. government's official web portal to all federal, state and local government web resources and services.